Location: Zapote
(9.9191°N, 84.0597°W)
Time: 09:49:03
(UTC-06:00)

Altair - All Passes

Search period start: 27 February 2021 00:00
Search period end: 09 March 2021 00:00
Orbit: 1501 x 1682 km, 47.2° (Epoch: 26 February)

Date Brightness Start Highest point End Pass type
(mag) Time Alt. Az. Time Alt. Az. Time Alt. Az.
27 Feb - 01:14:33 10° N 01:20:01 16° NE 01:25:31 10° ENE visible
27 Feb - 03:15:52 10° NW 03:25:50 70° NE 03:35:57 10° SE visible
27 Feb - 05:22:33 10° WNW 05:30:24 26° SW 05:38:20 10° S visible
27 Feb - 16:12:01 10° SSW 16:21:01 60° SE 16:30:00 10° NE daylight
27 Feb - 18:18:05 10° W 18:25:44 30° NW 18:33:31 10° NNE visible
28 Feb - 00:50:01 10° N 00:54:37 14° NE 00:59:15 10° ENE visible
28 Feb - 02:50:45 10° NNW 03:00:37 64° NE 03:10:39 10° SE visible
28 Feb - 04:56:55 10° WNW 05:05:12 29° SW 05:13:35 10° S visible
28 Feb - 15:47:00 10° SSW 15:55:53 53° SE 16:04:43 10° NE daylight
28 Feb - 17:52:32 10° WSW 18:00:30 33° NW 18:08:34 10° NNE visible
01 Mar - 00:25:42 10° NNE 00:29:12 12° NE 00:32:43 10° NE night (unlit)
01 Mar - 02:25:40 10° NNW 02:35:23 57° NE 02:45:17 10° SE visible
01 Mar - 04:31:20 10° WNW 04:40:00 33° SW 04:48:46 10° S visible
01 Mar - 15:22:02 10° SSW 15:30:45 47° SE 15:39:24 10° ENE daylight
01 Mar - 17:27:03 10° WSW 17:35:17 37° NW 17:43:36 10° NNE daylight
02 Mar - 00:02:01 10° NNE 00:03:46 10° NNE 00:05:30 10° NE night (unlit)
02 Mar - 02:00:36 10° NNW 02:10:09 51° NE 02:19:54 10° ESE visible
02 Mar - 04:05:51 10° WNW 04:14:48 37° SW 04:23:53 10° SSE visible
02 Mar - 14:57:05 10° SSW 15:05:37 42° SE 15:14:02 10° ENE daylight
02 Mar - 17:01:37 10° WSW 17:10:05 41° NW 17:18:37 10° NNE daylight
03 Mar - 01:35:33 10° NNW 01:44:55 46° NE 01:54:28 10° ESE visible
03 Mar - 03:40:24 10° WNW 03:49:36 42° SW 03:58:58 10° SSE visible
03 Mar - 14:32:12 10° SSW 14:40:28 37° SE 14:48:39 10° ENE daylight
03 Mar - 16:36:14 10° WSW 16:44:53 46° NW 16:53:36 10° NNE daylight
04 Mar - 01:10:33 10° NNW 01:19:40 41° NE 01:28:59 10° ESE visible
04 Mar - 03:15:01 10° WNW 03:24:24 47° SW 03:34:00 10° SSE visible
04 Mar - 14:07:21 10° S 14:15:20 33° SE 14:23:12 10° ENE daylight
04 Mar - 16:10:52 10° WSW 16:19:42 52° NW 16:28:34 10° NNE daylight
05 Mar - 00:45:33 10° NNW 00:54:25 37° NE 01:03:28 10° ESE visible
05 Mar - 02:49:39 10° NW 02:59:13 53° SW 03:08:59 10° SSE visible
05 Mar - 13:42:33 10° S 13:50:11 29° SE 13:57:42 10° ENE daylight
05 Mar - 15:45:33 10° SW 15:54:32 58° NW 16:03:31 10° NNE daylight
05 Mar - 17:57:53 10° NW 18:00:28 11° NW 18:03:03 10° NNW visible
06 Mar - 00:20:36 10° NNW 00:29:09 33° NE 00:37:54 10° ESE night (unlit)
06 Mar - 02:24:20 10° NW 02:34:01 59° SW 02:43:56 10° SSE visible
06 Mar - 13:17:48 10° S 13:25:02 25° SE 13:32:08 10° ENE daylight
06 Mar - 15:20:15 10° SW 15:29:22 65° NW 15:38:27 10° NNE daylight
06 Mar - 17:31:18 10° WNW 17:35:06 13° NW 17:38:55 10° N daylight
06 Mar - 23:55:40 10° NNW 00:03:53 30° NE 00:12:16 10° E night (unlit)
07 Mar - 01:59:03 10° NW 02:08:49 66° SW 02:18:51 10° SSE visible
07 Mar - 04:11:46 10° WSW 04:13:37 11° SW 04:15:28 10° SW visible
07 Mar - 12:53:08 10° S 12:59:52 22° SE 13:06:29 10° E daylight
07 Mar - 14:55:01 10° SW 15:04:13 72° NW 15:13:21 10° NE daylight
07 Mar - 17:05:04 10° WNW 17:09:44 15° NW 17:14:26 10° N daylight
07 Mar - 23:30:46 10° NNW 23:38:35 27° NE 23:46:35 10° E night (unlit)
08 Mar - 01:33:48 10° NW 01:43:38 73° SW 01:53:44 10° SSE visible
08 Mar - 03:44:27 10° WSW 03:48:22 13° SW 03:52:19 10° SSW visible
08 Mar - 12:28:33 10° S 12:34:42 19° SE 12:40:44 10° E daylight
08 Mar - 14:29:47 10° SW 14:39:04 80° NW 14:48:15 10° NE daylight
08 Mar - 16:39:02 10° WNW 16:44:24 17° NW 16:49:50 10° N daylight
08 Mar - 23:05:55 10° N 23:13:18 24° NE 23:20:50 10° E night (unlit)
